Location: Bonny Doon Airfield
(37.0704°N, 122.1252°W)
Time: 10:33:02
(UTC-07:00)

BREEZE M DEB (TANK) - Visible Passes

Search period start: 30 June 2016 00:00
Search period end: 10 July 2016 00:00
Orbit: 337 x 13710 km, 49.6° (Epoch: 28 June)

Date Brightness Start Highest point End Pass type
(mag) Time Alt. Az. Time Alt. Az. Time Alt. Az.
30 Jun 7.2 00:10:34 10° W 01:19:14 57° N 01:30:15 10° ENE visible
30 Jun 7.9 20:28:26 10° SW 22:26:30 80° NW 22:50:08 10° ENE visible
01 Jul 5.8 02:43:39 10° WNW 03:12:38 64° NNE 03:18:48 10° ESE visible
01 Jul 7.5 22:55:41 10° WSW 00:25:25 60° NNW 00:39:13 10° ENE visible
02 Jul 4.5 04:48:11 10° NW 05:01:38 48° WSW 05:05:44 10° SSE visible
02 Jul 8.0 19:29:38 10° SSW 21:30:08 88° NW 21:58:46 10° NE visible
03 Jul 6.4 01:40:15 10° WNW 02:20:21 58° N 02:27:59 10° E visible
03 Jul 7.6 21:44:34 10° WSW 23:30:51 66° NNW 23:48:05 10° ENE visible
04 Jul 4.6 03:52:20 10° NW 04:10:59 77° SW 04:15:39 10° SE visible
04 Jul 8.1 18:33:31 10° SSW 20:33:09 83° SE 21:07:12 10° NE visible
05 Jul 6.9 00:30:59 10° W 01:27:29 57° N 01:37:03 10° E visible
05 Jul 7.8 20:38:51 10° SW 22:35:25 72° NNW 22:56:51 10° ENE visible
06 Jul 5.2 02:54:42 10° WNW 03:19:44 80° NNE 03:25:14 10° ESE visible
06 Jul 7.2 23:16:19 10° W 00:33:59 58° N 00:46:00 10° ENE visible
07 Jul 5.2 04:56:49 10° WNW 05:06:55 27° WSW 05:10:55 10° S visible
07 Jul 7.9 19:37:36 10° SW 21:39:03 79° NW 22:05:29 10° ENE visible
08 Jul 5.9 01:54:04 10° WNW 02:27:52 67° NNE 02:34:35 10° ESE visible
08 Jul 7.4 22:01:36 10° WSW 23:39:42 62° NNW 23:54:50 10° ENE visible
09 Jul 4.7 04:01:10 10° NW 04:16:51 48° WSW 04:21:24 10° SSE visible
09 Jul 8.0 18:39:36 10° SSW 20:41:48 88° NW 21:13:56 10° NE visible
